Terminal Aerodrome Forecast
Issued by NWS Rapid City, SD

Home | Current Version | Previous Version | Graphics & Text | Print | Product List | Glossary On
Versions: 1 2 3 4 5 6 7 8 9 10 11 12 13 14 15 16 17
000
FTUS43 KUNR 202329
TAFRAP
TAF
KRAP 202329Z 2100/2124 34011KT P6SM SCT150
     FM210700 34018G27KT P6SM OVC030
     FM210900 34018G30KT P6SM OVC015
     FM211100 34017G27KT P6SM SCT050=

USA.gov is the U.S. government's official web portal to all federal, state and local government web resources and services.